{"data":{"norad_id":68598,"intl_designator":"2026-072AB","name":"KUIPER-00301","alt_names":[],"object_type":"PAYLOAD","status":"ACTIVE","operator":null,"country":"US","launch_date":"2026-04-04","launch_site_code":"AFETR","launch_vehicle":null,"mission":null,"orbit_class":"UNKNOWN","rcs_meters":null,"size_class":null,"mass_kg":null,"dimensions":null,"purposes":[],"wikipedia_slug":null,"has_3d_model":false,"image_url":null,"decayed_at":null,"tle_current":{"epoch":"2026-09-20T00:47:47.692032Z","epoch_age_seconds":106810,"freshness":"FRESH","line1":"1 68598U 26072AB  26263.03319088  .00001210  00000+0  20264-3 0  9994","line2":"2 68598  51.9017  95.7818 0001877 193.9033 166.1876 14.76502916 25722","mean_motion":14.76502916,"eccentricity":0.0001877,"inclination_deg":51.9017,"raan_deg":95.7818,"arg_perigee_deg":193.9033,"mean_anomaly_deg":166.1876,"bstar":0.00020264,"rev_number":2572,"period_min":97.527745078967,"perigee_km":639.0671345756,"apogee_km":641.70188755085,"semimajor_km":7018.5215110632,"source":"CELESTRAK","updated_at":"2026-09-20T09:00:24.354599Z"}}}